7 * 24
多渠道服务支持
BEIDOU-3 M1 是中国北斗三号导航卫星系统中的一颗中圆地球轨道(MEO)卫星,属于北斗三号的中轨卫星星座部分。该卫星于2018年发射,主要承担提供全球高精度定位、导航和授时服务的任务。北斗三号系统采用三种轨道卫星组成混合星座,M1卫星在其中起到关键作用,提升了系统的覆盖范围和定位精度。其搭载了新一代高精度原子钟和改进型信号发射器,增强了系统的稳定性和兼容性,为全球用户提供更优质的服务。
中国
(CN)
| 数据来源 | 国际轨道数据 |
| 星历时间: | 2026-09-12T10:52:31+0800 1天前 查看轨道信息 |
| 半长轴: | 27906.199km |
| 偏心率: | 0.0007279 |
| 轨道倾角: | 56.772° |
| 近地点辐角 | 323.592° |
| 升交点赤经 | 60.225° |
| 平近点角 | 36.376° |
| 近地点: | 21507.749km |
| 远地点: | 21548.375km |
| 周期: | 773.234分钟 |
| 每日圈数: | 1.862309 |